STARLINK-31182, 59159

Orbit data source: Space-Track

STARLINK-31182, 59159 is a payload satellite owned by SpaceX/Seattle (US) in LEO that was launched on Mon, 04 Mar 2024 UTC via an FALCON 9 launch vehicle from the Air Force Eastern Test Range (AFETR). Payload-class satellites include a variety of spacecraft equipped with specific instruments for various scientific and technological missions. These include communications satellites like Starlink; space stations such as the ISS; scientific satellites like the Hubble; Earth observation satellites from companies like Planet Labs, Umbra, and HawkEye 360; GPS; miniature CubeSats for education and research; and military/defense satellites.

Loading next visibility...
Identifier
59159, 2024-044H
Orbit
LEO
Country
Flag of USUS
Related business
Manufacturer
SpaceX/Seattle
Mission
Operational Commercial Communications
Bus & Motor
STARLINK V2M, Unknown motor
Mass
730 kg wet, ~700 kg dry
Launch date (UTC)
2024-03-04 (2 years ago)
Launch vehicle
FALCON 9
Launch site
Air Force Eastern Test Range (AFETR)
Object type
Payload
Rocket body
Debris
Shape & HBR
Box + 2 Pan, 14.5 m
Radar Cross Section
33.884 m², Large (>1 m²)

Expand to show TLE details & history
Last TLE update: 10 hours ago

TLE from 10 hours ago
0 STARLINK-31182
1 59159U 24044H   25251.15646172 -.00002477  00000-0 -80512-4 0  9992
2 59159  42.9994  57.5267 0001746 273.1328  86.9324 15.27579912 85681
Epoch: 2025-09-08T03:45Z
TLE epoch observation values (Epoch: 2025-09-08T03:45:18.292Z)
Latitude
-0.00001°
Longitude
13.73484°
Altitude
482.761 km
Speed
7.626 km/s
True Right ascension
03h 50m 06s
True Declination
0° 00' 00"
Sunlit
Object was in daylight at epoch
Visualization orbit readout
Latitude
Unknown
Longitude
Unknown
Altitude
Unknown
Speed
Unknown
Apparent Right ascension
Unknown
Apparent Declination
Unknown
Sunlit
N/A
Visualization observer readout
Local Sidereal Time
06:22:39
Azimuth
Unknown
Elevation
Unknown
Doppler factor
Unknown
Orbital elements
Apogee altitude
486.193 km
Perigee altitude
483.796 km
Semi-major axis
6,863.132 km
Eccentricity
0.00017
Inclination
42.9994°
RAAN
57.5267°
Arg. of periapsis
273.1328°
True anomaly
86.95238°
Mean anomaly
86.9324°
Eccentric anomaly
86.94239°
Mean motion
3.81733 °/min
Orbital period
94.31 mins
BSTAR
-0.000080512
Loading maneuver chart data...
Computing Atmospheric mass density...
Loading historical data...
Loading historical data...
Loading historical data...
Loading historical data...
Loading historical data...
Loading historical data...
Loading historical data...

Documentation

Showing up to 5 results
|